Overview Statistics Trail Chart Weather Telemetry Raw packets
 

This is the latest recevied weather packets stored in our database for station/object KD4EG. If no packets are shown the sender has not sent any weather packets the latest 10 day(s).

<< 37 38 39 40 41 42 43 >>
Time Temp. Humidity Pressure Rain* Wind** Luminosity Snow
1788395148 30.56° C 68% 1020.5 hPa 0 mm - 0 W/m² -
1788394843 30.56° C 68% 1020.3 hPa 0 mm - 0 W/m² -
1788394538 30.56° C 69% 1020.5 hPa 0 mm - 0 W/m² -
1788394237 31.11° C 68% 1020.5 hPa 0 mm - 0 W/m² -
1788393933 31.11° C 65% 1020.6 hPa 0 mm - 0 W/m² -
1788393632 31.67° C 65% 1020.1 hPa 0 mm - 0 W/m² -
1788393331 31.67° C 65% 1020.2 hPa 0 mm - 0 W/m² -
1788393026 32.22° C 63% 1020.3 hPa 0 mm - 0 W/m² -
1788392721 31.67° C 62% 1020.1 hPa 0 mm - 3 W/m² -
1788392419 32.22° C 63% 1020.1 hPa 0 mm - 6 W/m² -
1788392114 32.22° C 62% 1020.1 hPa 0 mm - 11 W/m² -
1788391808 32.78° C 62% 1019.9 hPa 0 mm - 17 W/m² -
1788391502 32.78° C 60% 1020 hPa 0 mm - 26 W/m² -
1788391196 32.78° C 59% 1020 hPa 0 mm - 26 W/m² -
1788390891 32.78° C 59% 1020.3 hPa 0 mm - 37 W/m² -
1788390586 32.78° C 59% 1019.8 hPa 0 mm - 45 W/m² -
1788390286 33.33° C 59% 1020 hPa 0 mm - 37 W/m² -
1788389979 33.33° C 59% 1020 hPa 0 mm - 36 W/m² -
1788389675 33.33° C 58% 1019.8 hPa 0 mm - 37 W/m² -
1788389374 33.33° C 58% 1019.9 hPa 0 mm - 40 W/m² -
1788389073 33.89° C 57% 1020 hPa 0 mm - 42 W/m² -
1788388770 33.89° C 57% 1019.9 hPa 0 mm - 62 W/m² -
1788388465 33.89° C 56% 1019.7 hPa 0 mm - 56 W/m² -
1788388164 33.89° C 55% 1019.9 hPa 0 mm - 58 W/m² -
1788387863 35° C 54% 1020 hPa 0 mm - 55 W/m² -

* Rain latest hour (hover to see other rain measurements)
** Current wind speed in m/s (hover to see current wind gust speed)